Location: Bratsk-Energetik
(56.3300°N, 101.7600°E)
Time: 04:07:20
(UTC+08:00)

ISS - Pass Details

Date: 16 July 2018
Orbit: 402 x 408 km, 51.6° (Epoch: 17 July)

Event Time Altitude Azimuth Distance (km) Brightness Sun altitude
Exits shadow 02:21:25 15° 224° (SW) 1,196 -2.0 -11.1°
Maximum altitude 02:23:36 31° 168° (SSE) 744 -3.0 -11.0°
Drops below altitude 10° 02:26:34 10° 104° (ESE) 1,471 -1.0 -10.9°
Sets 02:28:47 0° 94° (E) 2,334 0.2 -10.8°
